DW9210 Weather Reports


time (UTC)temp
C
wind
direction
speed
KPH
gust
KPH
rain 1hr
cm
rain 24hr
cm
rain mn
cm
humidity
%
barometer
mb
20260502164003 12 327 4.8 9.7 0.00 0.00 0.00 55 1017.3
20260502163524 12 352 3.2 9.7 0.00 0.00 0.00 56 1017.3
20260502163003 12 327 3.2 8.0 0.00 0.00 0.00 56 1017.3
20260502162503 12 269 3.2 6.4 0.00 0.00 0.00 54 1017.3
20260502162003 11 200 1.6 4.8 0.00 0.00 0.00 55 1017.4
20260502161503 11 201 3.2 6.4 0.00 0.00 0.00 56 1017.4
20260502161003 11 208 3.2 6.4 0.00 0.00 0.00 57 1017.4
20260502160503 11 166 3.2 8.0 0.00 0.00 0.00 55 1017.5
20260502152003 11 74 1.6 6.4 0.00 0.00 0.00 60 1017.6
20260502151503 11 338 3.2 8.0 0.00 0.00 0.00 59 1017.6
20260502151024 11 31 3.2 8.0 0.00 0.00 0.00 59 1017.7
20260502150503 11 39 4.8 11.3 0.00 0.00 0.00 62 1017.7
20260502130503 7 54 6.4 14.5 0.00 0.00 0.00 77 1017.3
20260502123524 6 57 6.4 12.9 0.00 0.00 0.00 84 1017.0
20260502123024 6 71 4.8 12.9 0.00 0.00 0.00 86 1016.9
20260502122503 5 65 3.2 11.3 0.00 0.00 0.00 87 1016.9
20260502122003 5 54 3.2 11.3 0.00 0.00 0.00 87 1017.1
20260502121524 5 47 3.2 8.0 0.00 0.00 0.00 88 1017.2
20260502121003 5 34 3.2 8.0 0.00 0.00 0.00 89 1017.4
20260502120524 4 27 3.2 8.0 0.00 0.00 0.00 89 1017.4
20260502115503 4 30 4.8 8.0 0.00 0.00 0.00 90 1017.2
20260502115003 4 34 4.8 8.0 0.00 0.00 0.00 91 1017.1
20260502114003 3 27 3.2 6.4 0.00 0.00 0.00 92 1017.0
20260502113503 3 28 3.2 6.4 0.00 0.00 0.00 92 1016.8
20260502113003 3 26 3.2 6.4 0.00 0.00 0.00 93 1016.9
20260502112503 3 25 3.2 6.4 0.00 0.00 0.00 93 1016.9
20260502112003 3 26 3.2 6.4 0.00 0.00 0.00 94 1016.8
20260502111503 2 16 3.2 4.8 0.00 0.00 0.00 94 1016.7
20260502111003 2 4 3.2 4.8 0.00 0.00 0.00 94 1016.7
20260502110503 2 2 3.2 4.8 0.00 0.00 0.00 94 1016.7
20260502110003 2 1 1.6 4.8 0.00 0.00 0.00 94 1016.8
20260502105503 2 360 1.6 3.2 0.00 0.00 0.00 93 1016.6
20260502105024 2 1 1.6 4.8 0.00 0.00 0.00 94 1016.6
20260502104503 2 2 1.6 4.8 0.00 0.00 0.00 94 1016.6
20260502104003 2 5 3.2 4.8 0.00 0.00 0.00 94 1016.6
20260502103503 2 9 1.6 4.8 0.00 0.00 0.00 94 1016.5
20260502103003 2 14 1.6 4.8 0.00 0.00 0.00 94 1016.6
20260502102524 2 22 1.6 4.8 0.00 0.00 0.00 94 1016.6
20260502102003 2 33 1.6 4.8 0.00 0.00 0.00 94 1016.5
20260502101524 2 41 3.2 4.8 0.00 0.00 0.00 95 1016.4
20260502101003 2 44 3.2 4.8 0.00 0.00 0.00 95 1016.5
20260502100503 2 41 3.2 6.4 0.00 0.00 0.00 95 1016.5
20260502091503 1 345 1.6 3.2 0.00 0.00 0.00 95 1016.7
20260502091003 1 348 1.6 3.2 0.00 0.00 0.00 95 1016.6
20260502090503 1 353 1.6 3.2 0.00 0.00 0.00 95 1016.6
20260502071503 2 322 1.6 3.2 0.00 0.00 0.00 95 1016.4
20260502071003 2 320 0.0 3.2 0.00 0.00 0.00 95 1016.4
20260502070503 1 320 0.0 3.2 0.00 0.00 0.00 95 1016.5
20260502070003 1 328 1.6 4.8 0.00 0.00 0.00 95 1016.6
20260502065503 1 332 1.6 4.8 0.00 0.00 0.00 94 1016.6
20260502065003 2 0 0.0 0.0 0.00 0.00 0.00 95 1016.5
20260502064503 2 0 0.0 0.0 0.00 0.00 0.00 95 1016.5
20260502064003 2 0 0.0 0.0 0.00 0.00 0.00 95 1016.5
20260502063503 2 0 0.0 0.0 0.00 0.00 0.00 95 1016.5
20260502063024 1 0 0.0 0.0 0.00 0.00 0.00 95 1016.5
20260502062503 1 0 0.0 0.0 0.00 0.00 0.00 94 1016.6
20260502062024 1 0 0.0 0.0 0.00 0.00 0.00 94 1016.6
20260502061503 1 0 0.0 0.0 0.00 0.00 0.00 94 1016.7
20260502061003 1 0 0.0 0.0 0.00 0.00 0.00 93 1016.7
20260502060524 1 0 0.0 0.0 0.00 0.00 0.00 93 1016.8
20260502060003 2 0 0.0 0.0 0.00 0.00 0.00 94 1016.8
20260502055503 2 0 0.0 0.0 0.00 0.00 0.00 94 1016.8
20260502055003 2 0 0.0 0.0 0.00 0.00 0.00 93 1016.9
20260502054503 2 0 0.0 0.0 0.00 0.00 0.00 93 1016.8
20260502054003 2 0 0.0 0.0 0.00 0.00 0.00 93 1016.9
20260502053503 2 0 0.0 0.0 0.00 0.00 0.00 93 1016.9
20260502053003 2 0 0.0 0.0 0.00 0.00 0.00 93 1016.9
20260502052503 2 0 0.0 0.0 0.00 0.00 0.00 94 1017.0
20260502052024 2 0 0.0 0.0 0.00 0.00 0.00 93 1017.0
20260502051503 2 0 0.0 0.0 0.00 0.00 0.00 93 1017.1
20260502051024 2 0 0.0 0.0 0.00 0.00 0.00 93 1017.0
20260502050503 2 0 0.0 0.0 0.00 0.00 0.00 93 1017.0
20260502050003 2 0 0.0 0.0 0.00 0.00 0.00 93 1017.1
20260502045524 2 356 0.0 3.2 0.00 0.00 0.00 93 1016.9
20260502045003 2 356 1.6 3.2 0.00 0.00 0.00 93 1017.0
20260502044503 2 356 1.6 3.2 0.00 0.00 0.00 93 1017.0
20260502044003 2 356 0.0 3.2 0.00 0.00 0.00 93 1017.0
20260502043503 2 0 0.0 0.0 0.00 0.00 0.00 93 1017.0
20260502043024 2 0 0.0 0.0 0.00 0.00 0.00 92 1017.0
20260502042503 3 0 0.0 0.0 0.00 0.00 0.00 92 1017.0
20260502042003 3 0 0.0 0.0 0.00 0.00 0.00 92 1017.0
20260502041503 3 356 0.0 1.6 0.00 0.00 0.00 92 1017.0
20260502041003 3 356 0.0 1.6 0.00 0.00 0.00 92 1017.0
20260502040503 3 0 0.0 0.0 0.00 0.00 0.00 91 1017.0
20260502040003 3 0 0.0 0.0 0.00 0.00 0.00 91 1017.1
20260502035503 3 0 0.0 0.0 0.00 0.00 0.00 91 1017.1
20260502035024 3 0 0.0 0.0 0.00 0.00 0.00 91 1017.1
20260502034503 3 0 0.0 0.0 0.00 0.00 0.00 90 1017.2
20260502034003 4 0 0.0 0.0 0.00 0.00 0.00 91 1017.1
20260502033503 4 0 0.0 0.0 0.00 0.00 0.00 91 1017.1
20260502033003 4 0 0.0 0.0 0.00 0.00 0.00 90 1017.1
20260502032524 4 0 0.0 0.0 0.00 0.00 0.00 90 1017.0
20260502032003 4 356 0.0 1.6 0.00 0.00 0.00 90 1017.0
20260502031503 4 356 0.0 1.6 0.00 0.00 0.00 90 1017.0
20260502031003 5 356 0.0 3.2 0.00 0.00 0.00 89 1017.0
20260502030503 5 356 0.0 3.2 0.00 0.00 0.00 89 1016.9
20260502030003 5 0 0.0 0.0 0.00 0.00 0.00 89 1016.9
20260502025503 5 0 0.0 0.0 0.00 0.00 0.00 87 1016.9
20260502025003 5 0 0.0 0.0 0.00 0.00 0.00 87 1016.9
20260502024503 5 0 0.0 0.0 0.00 0.00 0.00 87 1017.0
20260502024003 5 0 0.0 0.0 0.00 0.00 0.00 86 1017.0
20260502023503 6 0 0.0 0.0 0.00 0.00 0.00 85 1017.0
20260502023003 6 0 0.0 0.0 0.00 0.00 0.00 85 1017.1
20260502022524 6 0 0.0 0.0 0.00 0.00 0.00 85 1017.1
20260502022024 6 0 0.0 0.0 0.00 0.00 0.00 84 1017.1
20260502021503 6 0 0.0 0.0 0.00 0.00 0.00 83 1017.0
20260502021024 6 0 0.0 0.0 0.00 0.00 0.00 82 1017.0
20260502020503 7 0 0.0 0.0 0.00 0.00 0.00 82 1016.9
20260502020003 7 0 0.0 0.0 0.00 0.00 0.00 81 1016.8
20260502015503 7 356 0.0 1.6 0.00 0.00 0.00 79 1016.7
20260502015003 7 357 0.0 1.6 0.00 0.00 0.00 79 1016.6
20260502014503 7 357 1.6 3.2 0.00 0.00 0.00 77 1016.4
20260502014003 8 360 1.6 3.2 0.00 0.00 0.00 76 1016.3
20260502013503 8 22 0.0 1.6 0.00 0.00 0.00 75 1016.2
20260502013003 8 27 0.0 1.6 0.00 0.00 0.00 74 1016.1
20260502012503 8 27 1.6 3.2 0.00 0.00 0.00 72 1015.9
20260502012024 8 25 1.6 3.2 0.00 0.00 0.00 67 1015.7
20260502011503 8 29 1.6 3.2 0.00 0.00 0.00 67 1015.6
20260502011003 9 31 1.6 4.8 0.00 0.00 0.00 66 1015.5
20260502010503 9 19 3.2 4.8 0.00 0.00 0.00 66 1015.4
20260502010024 9 354 3.2 6.4 0.00 0.00 0.00 66 1015.4
20260502005503 9 348 3.2 9.7 0.00 0.00 0.00 66 1015.4
20260502005003 10 347 4.8 9.7 0.00 0.00 0.00 66 1015.4
20260502004503 10 333 4.8 11.3 0.00 0.00 0.00 65 1015.3
20260502004003 10 333 6.4 14.5 0.00 0.00 0.00 64 1015.3
20260502003503 10 342 6.4 14.5 0.00 0.00 0.00 64 1015.1
20260502003003 10 346 4.8 11.3 0.00 0.00 0.00 66 1015.1
20260502002503 10 346 3.2 9.7 0.00 0.00 0.00 65 1014.8
20260502002024 10 333 3.2 8.0 0.00 0.00 0.00 65 1014.9
20260502001503 10 311 3.2 8.0 0.00 0.00 0.00 64 1014.8
20260502001003 11 300 3.2 8.0 0.00 0.00 0.00 64 1014.7
20260502000503 11 299 4.8 8.0 0.00 0.00 0.00 62 1014.5
20260502000003 11 299 4.8 8.0 0.00 0.00 0.00 63 1014.3
20260501235503 11 305 6.4 11.3 0.00 0.00 0.00 61 1014.4
20260501235003 11 314 4.8 11.3 0.00 0.00 0.00 62 1014.1
20260501234503 11 323 4.8 9.7 0.00 0.00 0.00 62 1014.1
20260501234003 12 323 4.8 9.7 0.00 0.00 0.00 61 1014.0
20260501233524 12 312 4.8 9.7 0.00 0.00 0.00 61 1014.1
20260501233024 12 302 6.4 11.3 0.00 0.00 0.00 62 1014.2
20260501232503 12 302 8.0 12.9 0.00 0.00 0.00 60 1014.1
20260501232024 12 304 8.0 14.5 0.00 0.00 0.00 59 1014.1
20260501231524 12 307 8.0 14.5 0.00 0.00 0.00 59 1014.0
20260501231003 13 317 8.0 16.1 0.00 0.00 0.00 59 1014.0
20260501230503 13 323 8.0 17.7 0.00 0.00 0.00 59 1013.9
20260501230003 13 334 9.7 17.7 0.00 0.00 0.00 60 1013.9
20260501225503 12 336 8.0 16.1 0.00 0.00 0.00 59 1014.0
20260501225003 13 314 8.0 16.1 0.00 0.00 0.00 61 1014.0
20260501224503 13 317 8.0 16.1 0.00 0.00 0.00 59 1014.0
20260501224003 13 327 8.0 14.5 0.00 0.00 0.00 60 1013.9
20260501223503 13 340 6.4 14.5 0.00 0.00 0.00 60 1013.9
20260501223003 13 344 8.0 17.7 0.00 0.00 0.00 59 1013.9
20260501222503 13 332 8.0 17.7 0.00 0.00 0.00 58 1013.9
20260501222003 13 323 8.0 20.9 0.00 0.00 0.00 60 1013.9
20260501221503 13 323 11.3 20.9 0.00 0.00 0.00 59 1013.9
20260501221003 13 315 12.9 20.9 0.00 0.00 0.00 57 1013.9
20260501220503 13 307 9.7 20.9 0.00 0.00 0.00 58 1013.8
20260501220003 14 308 8.0 20.9 0.00 0.00 0.00 58 1013.8
20260501215503 14 310 9.7 17.7 0.00 0.00 0.00 60 1013.7
20260501215003 13 310 9.7 20.9 0.00 0.00 0.00 63 1013.6
20260501214503 13 320 9.7 20.9 0.00 0.00 0.00 60 1013.8
20260501214003 13 325 9.7 20.9 0.00 0.00 0.00 57 1013.7
20260501213503 13 309 9.7 20.9 0.00 0.00 0.00 58 1013.7
20260501213003 14 296 6.4 17.7 0.00 0.00 0.00 60 1013.7
20260501212524 13 291 6.4 14.5 0.00 0.00 0.00 61 1013.7
20260501212003 13 288 9.7 17.7 0.00 0.00 0.00 62 1013.6
20260501211503 13 294 9.7 17.7 0.00 0.00 0.00 60 1013.6
20260501211003 13 299 9.7 20.9 0.00 0.00 0.00 60 1013.6
20260501210503 13 294 9.7 20.9 0.00 0.00 0.00 62 1013.7
20260501210003 13 297 8.0 16.1 0.00 0.00 0.00 64 1013.7
20260501205503 13 297 11.3 25.7 0.00 0.00 0.00 60 1013.7
20260501205003 14 296 12.9 25.7 0.00 0.00 0.00 61 1013.6
20260501204503 15 280 12.9 24.1 0.00 0.00 0.00 56 1013.4
20260501204003 15 265 11.3 24.1 0.00 0.00 0.00 54 1013.4
20260501203503 15 277 8.0 17.7 0.00 0.00 0.00 56 1013.4
20260501203024 15 288 8.0 17.7 0.00 0.00 0.00 63 1013.4
20260501202503 15 286 9.7 20.9 0.00 0.00 0.00 60 1013.6
20260501202003 15 285 11.3 20.9 0.00 0.00 0.00 60 1013.5
20260501201503 15 285 12.9 25.7 0.00 0.00 0.00 58 1013.5
20260501201003 15 271 12.9 33.8 0.00 0.00 0.00 58 1013.6
20260501200503 15 264 11.3 33.8 0.00 0.00 0.00 51 1013.5
20260501200024 15 267 9.7 17.7 0.00 0.00 0.00 54 1013.5
20260501195503 15 269 9.7 17.7 0.00 0.00 0.00 54 1013.4
20260501195003 15 269 11.3 17.7 0.00 0.00 0.00 58 1013.4
20260501194503 15 268 9.7 16.1 0.00 0.00 0.00 57 1013.4
20260501194003 15 282 9.7 14.5 0.00 0.00 0.00 60 1013.4
20260501193503 14 289 11.3 17.7 0.00 0.00 0.00 60 1013.4
20260501193003 15 284 12.9 22.5 0.00 0.00 0.00 59 1013.3
20260501192503 15 278 11.3 22.5 0.00 0.00 0.00 57 1013.4
20260501192024 15 274 11.3 22.5 0.00 0.00 0.00 58 1013.3
20260501191524 15 271 9.7 22.5 0.00 0.00 0.00 55 1013.3
20260501191003 15 260 9.7 19.3 0.00 0.00 0.00 59 1013.3
20260501190503 15 254 8.0 19.3 0.00 0.00 0.00 55 1013.4
20260501190003 15 262 8.0 19.3 0.00 0.00 0.00 63 1013.5
20260501185503 14 266 8.0 16.1 0.00 0.00 0.00 65 1013.6
20260501185003 14 272 8.0 12.9 0.00 0.00 0.00 62 1013.5
20260501184504 13 282 8.0 14.5 0.00 0.00 0.00 67 1013.6
20260501184003 13 286 9.7 16.1 0.00 0.00 0.00 66 1013.7
20260501183503 13 284 11.3 17.7 0.00 0.00 0.00 63 1013.7
20260501183003 15 269 9.7 17.7 0.00 0.00 0.00 63 1013.8
20260501182503 15 258 11.3 27.4 0.00 0.00 0.00 61 1013.7
20260501182003 15 255 14.5 27.4 0.00 0.00 0.00 61 1013.6
20260501181503 15 260 11.3 27.4 0.00 0.00 0.00 59 1013.7
20260501181003 15 279 9.7 25.7 0.00 0.00 0.00 70 1013.9
20260501180524 15 286 9.7 19.3 0.00 0.00 0.00 66 1013.8
20260501180003 15 271 11.3 20.9 0.00 0.00 0.00 71 1013.9
20260501175503 14 262 11.3 25.7 0.00 0.00 0.00 68 1014.0